| time (UTC) | temp C | wind direction | speed KPH | gust KPH | rain 1hr cm | rain 24hr cm | rain mn cm | humidity % | barometer mb |
| 20260504210516 | 25 | 113 | 4.8 | 9.7 | 0.00 | 0.00 | 0.00 | 32 | 1011.4 |
| 20260504205516 | 25 | 113 | 3.2 | 9.7 | 0.00 | 0.00 | 0.00 | 32 | 1011.4 |
| 20260504204516 | 25 | 248 | 1.6 | 4.8 | 0.00 | 0.00 | 0.00 | 30 | 1011.6 |
| 20260504203516 | 25 | 135 | 4.8 | 11.3 | 0.00 | 0.00 | 0.00 | 30 | 1011.7 |
| 20260504202516 | 26 | 113 | 4.8 | 11.3 | 0.00 | 0.00 | 0.00 | 30 | 1011.9 |
| 20260504201517 | 26 | 113 | 3.2 | 9.7 | 0.00 | 0.00 | 0.00 | 31 | 1012.0 |
| 20260504200517 | 26 | 135 | 1.6 | 12.9 | 0.00 | 0.00 | 0.00 | 32 | 1012.1 |
| 20260504195516 | 26 | 113 | 4.8 | 9.7 | 0.00 | 0.00 | 0.00 | 31 | 1012.2 |
| 20260504194516 | 26 | 113 | 4.8 | 12.9 | 0.00 | 0.00 | 0.00 | 31 | 1012.3 |
| 20260504193516 | 26 | 248 | 1.6 | 3.2 | 0.00 | 0.00 | 0.00 | 33 | 1012.5 |
| 20260504192516 | 26 | 248 | 1.6 | 6.4 | 0.00 | 0.00 | 0.00 | 33 | 1012.6 |
| 20260504191516 | 26 | 113 | 3.2 | 8.0 | 0.00 | 0.00 | 0.00 | 31 | 1012.7 |
| 20260504190516 | 26 | 135 | 1.6 | 4.8 | 0.00 | 0.00 | 0.00 | 33 | 1012.9 |
| 20260504185536 | 26 | 248 | 1.6 | 4.8 | 0.00 | 0.00 | 0.00 | 34 | 1013.0 |
| 20260504184517 | 26 | 113 | 4.8 | 11.3 | 0.00 | 0.00 | 0.00 | 33 | 1013.1 |
| 20260504183516 | 25 | 113 | 3.2 | 9.7 | 0.00 | 0.00 | 0.00 | 33 | 1013.2 |
| 20260504182516 | 26 | 135 | 1.6 | 6.4 | 0.00 | 0.00 | 0.00 | 31 | 1013.4 |
| 20260504181536 | 26 | 113 | 1.6 | 6.4 | 0.00 | 0.00 | 0.00 | 33 | 1013.5 |
| 20260504180516 | 26 | 225 | 1.6 | 6.4 | 0.00 | 0.00 | 0.00 | 35 | 1013.5 |
| 20260504175516 | 25 | 113 | 1.6 | 4.8 | 0.00 | 0.00 | 0.00 | 34 | 1013.5 |
| 20260504174536 | 25 | 113 | 3.2 | 6.4 | 0.00 | 0.00 | 0.00 | 31 | 1013.6 |
| 20260504173516 | 25 | 113 | 3.2 | 9.7 | 0.00 | 0.00 | 0.00 | 33 | 1013.7 |
| 20260504172516 | 25 | 338 | 1.6 | 6.4 | 0.00 | 0.00 | 0.00 | 34 | 1013.7 |
| 20260504171516 | 25 | 113 | 1.6 | 4.8 | 0.00 | 0.00 | 0.00 | 33 | 1013.8 |
| 20260504170518 | 25 | 113 | 1.6 | 4.8 | 0.00 | 0.00 | 0.00 | 31 | 1013.9 |
| 20260504150516 | 20 | 338 | 1.6 | 3.2 | 0.00 | 0.00 | 0.00 | 42 | 1015.7 |
| 20260504140516 | 16 | 0.0 | 3.2 | 0.00 | 0.00 | 0.00 | 53 | 1015.4 | |
| 20260504130516 | 12 | 0 | 1.6 | 4.8 | 0.00 | 0.00 | 0.00 | 74 | 1015.4 |
| 20260504110517 | 3 | 135 | 1.6 | 3.2 | 0.00 | 0.00 | 0.00 | 93 | 1014.8 |
| 20260504100517 | 3 | 0.0 | 0.0 | 0.00 | 0.00 | 0.00 | 91 | 1014.8 | |
| 20260504081517 | 5 | 0.0 | 0.0 | 0.00 | 0.00 | 0.00 | 89 | 1014.8 | |
| 20260504080537 | 5 | 0.0 | 0.0 | 0.00 | 0.00 | 0.00 | 89 | 1014.7 | |
| 20260504050537 | 7 | 0.0 | 0.0 | 0.00 | 0.00 | 0.00 | 80 | 1015.1 | |
| 20260504045517 | 7 | 0.0 | 1.6 | 0.00 | 0.00 | 0.00 | 80 | 1015.0 | |
| 20260504044517 | 7 | 0.0 | 1.6 | 0.00 | 0.00 | 0.00 | 81 | 1015.0 | |
| 20260504043517 | 7 | 0.0 | 0.0 | 0.00 | 0.00 | 0.00 | 78 | 1014.8 | |
| 20260504042537 | 7 | 0.0 | 0.0 | 0.00 | 0.00 | 0.00 | 77 | 1014.8 | |
| 20260504041517 | 7 | 0.0 | 0.0 | 0.00 | 0.00 | 0.00 | 76 | 1014.7 | |
| 20260504040517 | 7 | 0.0 | 0.0 | 0.00 | 0.00 | 0.00 | 75 | 1014.8 | |
| 20260504035517 | 7 | 0.0 | 0.0 | 0.00 | 0.00 | 0.00 | 75 | 1014.9 | |
| 20260504034537 | 7 | 0.0 | 0.0 | 0.00 | 0.00 | 0.00 | 74 | 1014.9 | |
| 20260504033517 | 8 | 0.0 | 0.0 | 0.00 | 0.00 | 0.00 | 75 | 1014.9 | |
| 20260504032517 | 8 | 0.0 | 0.0 | 0.00 | 0.00 | 0.00 | 76 | 1015.0 | |
| 20260504031517 | 8 | 0.0 | 0.0 | 0.00 | 0.00 | 0.00 | 75 | 1015.1 | |
| 20260504030537 | 8 | 0.0 | 0.0 | 0.00 | 0.00 | 0.00 | 73 | 1014.9 | |
| 20260504025517 | 8 | 0.0 | 0.0 | 0.00 | 0.00 | 0.00 | 72 | 1015.0 | |
| 20260504024517 | 9 | 0.0 | 0.0 | 0.00 | 0.00 | 0.00 | 70 | 1014.9 | |
| 20260504023517 | 9 | 0.0 | 0.0 | 0.00 | 0.00 | 0.00 | 68 | 1014.9 | |
| 20260504022537 | 10 | 0.0 | 0.0 | 0.00 | 0.00 | 0.00 | 67 | 1014.8 | |
| 20260504021517 | 10 | 0.0 | 0.0 | 0.00 | 0.00 | 0.00 | 63 | 1014.7 | |
| 20260504020517 | 10 | 0.0 | 0.0 | 0.00 | 0.00 | 0.00 | 60 | 1014.5 | |
| 20260504015517 | 10 | 0.0 | 0.0 | 0.00 | 0.00 | 0.00 | 59 | 1014.2 | |
| 20260504014517 | 10 | 0.0 | 0.0 | 0.00 | 0.00 | 0.00 | 58 | 1014.1 | |
| 20260504013536 | 11 | 0.0 | 0.0 | 0.00 | 0.00 | 0.00 | 55 | 1014.0 | |
| 20260504012517 | 11 | 0.0 | 0.0 | 0.00 | 0.00 | 0.00 | 54 | 1013.9 | |
| 20260504011517 | 11 | 0.0 | 0.0 | 0.00 | 0.00 | 0.00 | 52 | 1013.9 | |
| 20260504010517 | 12 | 0.0 | 0.0 | 0.00 | 0.00 | 0.00 | 51 | 1013.8 | |
| 20260504005517 | 12 | 0.0 | 0.0 | 0.00 | 0.00 | 0.00 | 50 | 1013.7 | |
| 20260504004517 | 12 | 0.0 | 0.0 | 0.00 | 0.00 | 0.00 | 47 | 1013.7 | |
| 20260504003537 | 13 | 0.0 | 0.0 | 0.00 | 0.00 | 0.00 | 46 | 1013.7 | |
| 20260504002516 | 13 | 0.0 | 0.0 | 0.00 | 0.00 | 0.00 | 44 | 1013.5 | |
| 20260504001516 | 14 | 0.0 | 0.0 | 0.00 | 0.00 | 0.00 | 43 | 1013.5 | |
| 20260504000516 | 15 | 0.0 | 0.0 | 0.00 | 0.00 | 0.00 | 41 | 1013.4 | |
| 20260503235516 | 16 | 0.0 | 0.0 | 0.00 | 0.00 | 0.00 | 40 | 1013.3 | |
| 20260503234517 | 16 | 0.0 | 0.0 | 0.00 | 0.00 | 0.00 | 38 | 1013.3 | |
| 20260503233517 | 17 | 0.0 | 1.6 | 0.00 | 0.00 | 0.00 | 36 | 1013.3 | |
| 20260503232517 | 17 | 0.0 | 3.2 | 0.00 | 0.00 | 0.00 | 36 | 1013.2 | |
| 20260503231536 | 17 | 0.0 | 0.0 | 0.00 | 0.00 | 0.00 | 38 | 1013.2 | |
| 20260503230517 | 17 | 0.0 | 0.0 | 0.00 | 0.00 | 0.00 | 37 | 1013.3 | |
| 20260503225516 | 18 | 0.0 | 3.2 | 0.00 | 0.00 | 0.00 | 36 | 1013.3 | |
| 20260503224516 | 18 | 0.0 | 3.2 | 0.00 | 0.00 | 0.00 | 35 | 1013.3 | |
| 20260503223516 | 18 | 0.0 | 3.2 | 0.00 | 0.00 | 0.00 | 35 | 1013.4 | |
| 20260503222516 | 18 | 135 | 1.6 | 4.8 | 0.00 | 0.00 | 0.00 | 34 | 1013.4 |
| 20260503221517 | 18 | 0.0 | 1.6 | 0.00 | 0.00 | 0.00 | 34 | 1013.5 | |
| 20260503220516 | 18 | 0.0 | 4.8 | 0.00 | 0.00 | 0.00 | 34 | 1013.6 | |
| 20260503215516 | 18 | 113 | 1.6 | 6.4 | 0.00 | 0.00 | 0.00 | 31 | 1013.6 |
| 20260503214516 | 18 | 0.0 | 3.2 | 0.00 | 0.00 | 0.00 | 32 | 1013.9 | |
| 20260503213517 | 18 | 0.0 | 4.8 | 0.00 | 0.00 | 0.00 | 32 | 1013.9 | |
| 20260503212517 | 18 | 113 | 1.6 | 8.0 | 0.00 | 0.00 | 0.00 | 31 | 1014.0 |
| 20260503211516 | 18 | 113 | 3.2 | 6.4 | 0.00 | 0.00 | 0.00 | 29 | 1014.2 |